When you browse on this site, cookies collect data to enhance your experience and personalize the content and advertising you see.
Visit our Privacy Policy to learn more. By continuing to use the site, you agree to this use of cookies and data.
  • In Portugal
  • List of Countries
  • For 7 days
  • Water Temperature
  • Satellite Maps
  • Weather Map
  • Weather Widgets
  • user-avatar
    Login

    Hourly Weather Sozopol

    Today, 20 May, Monday

    Time Temperature Precipitation Wind Pressure Humidity
    00:00 +19°C° 0 mm 2 mps 753 mmHg 76%
    01:00 +19°C° 0 mm 2 mps 753 mmHg 75%
    02:00 +19°C° 0 mm 3 mps 753 mmHg 71%
    03:00 +19°C° 0 mm 3 mps 753 mmHg 70%
    04:00 +18°C° 0 mm 3 mps 753 mmHg 69%
    05:00 +18°C° 0 mm 3 mps 753 mmHg 68%
    06:00 +20°C° 0 mm 3 mps 753 mmHg 66%
    07:00 +22°C° 0 mm 3 mps 753 mmHg 64%
    08:00 +24°C° 0 mm 3 mps 753 mmHg 62%
    09:00 +26°C° 0 mm 3 mps 753 mmHg 56%
    10:00 +27°C° 0 mm 4 mps 753 mmHg 50%
    11:00 +28°C° 0 mm 4 mps 753 mmHg 44%
    12:00 +28°C° 0 mm 5 mps 753 mmHg 46%
    13:00 +28°C° 0 mm 5 mps 753 mmHg 47%
    14:00 +28°C° 0 mm 5 mps 753 mmHg 49%
    15:00 +28°C° 0 mm 5 mps 753 mmHg 52%
    16:00 +27°C° 0 mm 5 mps 752 mmHg 54%
    17:00 +26°C° 0 mm 5 mps 752 mmHg 56%
    18:00 +25°C° 0 mm 5 mps 752 mmHg 56%
    19:00 +22°C° 0 mm 5 mps 753 mmHg 56%
    20:00 +21°C° 0 mm 5 mps 753 mmHg 56%
    21:00 +21°C° 0 mm 6 mps 753 mmHg 54%
    22:00 +21°C° 0 mm 6 mps 754 mmHg 53%
    23:00 +21°C° 0 mm 7 mps 754 mmHg 51%

    Tomorrow, 21 May, Tuesday

    Time Temperature Precipitation Wind Pressure Humidity
    00:00 +20°C° 0 mm 6 mps 754 mmHg 57%
    01:00 +19°C° 0 mm 5 mps 754 mmHg 62%
    02:00 +18°C° 0 mm 4 mps 754 mmHg 67%
    03:00 +18°C° 0 mm 3 mps 754 mmHg 69%
    04:00 +18°C° 0 mm 3 mps 754 mmHg 72%
    05:00 +17°C° 0 mm 3 mps 754 mmHg 74%
    06:00 +19°C° 0 mm 3 mps 755 mmHg 71%
    07:00 +20°C° 0 mm 3 mps 755 mmHg 69%
    08:00 +22°C° 0 mm 3 mps 755 mmHg 66%
    09:00 +24°C° 0 mm 3 mps 755 mmHg 60%
    10:00 +26°C° 0 mm 3 mps 755 mmHg 54%
    11:00 +27°C° 0 mm 3 mps 755 mmHg 48%
    12:00 +28°C° 0 mm 3 mps 755 mmHg 46%
    13:00 +28°C° 0 mm 4 mps 755 mmHg 44%
    14:00 +29°C° 0 mm 4 mps 754 mmHg 42%
    15:00 +28°C° 0 mm 5 mps 754 mmHg 44%
    16:00 +27°C° 0 mm 5 mps 754 mmHg 46%
    17:00 +27°C° 0 mm 5 mps 754 mmHg 48%
    18:00 +23°C° 0 mm 5 mps 754 mmHg 51%
    19:00 +21°C° 0 mm 4 mps 755 mmHg 55%
    20:00 +19°C° 0 mm 3 mps 755 mmHg 58%
    21:00 +19°C° 0 mm 3 mps 755 mmHg 60%
    22:00 +18°C° 0 mm 3 mps 756 mmHg 62%
    23:00 +18°C° 0 mm 3 mps 756 mmHg 65%

    Day after tomorrow, 22 May, Wednesday

    Time Temperature Precipitation Wind Pressure Humidity
    00:00 +17°C° 0 mm 3 mps 756 mmHg 68%
    01:00 +16°C° 0 mm 3 mps 756 mmHg 72%
    02:00 +16°C° 0 mm 3 mps 756 mmHg 76%
    03:00 +14°C° 0 mm 3 mps 756 mmHg 78%
    04:00 +14°C° 0 mm 3 mps 757 mmHg 80%
    05:00 +15°C° 0 mm 2 mps 757 mmHg 81%
    06:00 +17°C° 0 mm 2 mps 757 mmHg 76%
    07:00 +19°C° 0 mm 2 mps 758 mmHg 70%
    08:00 +21°C° 0 mm 2 mps 758 mmHg 65%
    09:00 +23°C° 0 mm 2 mps 758 mmHg 59%
    10:00 +25°C° 0 mm 1 mps 758 mmHg 54%
    11:00 +26°C° 0 mm 1 mps 758 mmHg 48%
    12:00 +26°C° 0 mm 2 mps 758 mmHg 50%
    13:00 +26°C° 0 mm 3 mps 758 mmHg 51%
    14:00 +25°C° 0 mm 3 mps 758 mmHg 53%
    15:00 +25°C° 0 mm 3 mps 758 mmHg 55%
    16:00 +25°C° 0 mm 3 mps 757 mmHg 56%
    17:00 +25°C° 0 mm 3 mps 757 mmHg 58%
    18:00 +22°C° 0 mm 3 mps 757 mmHg 63%
    19:00 +21°C° 0 mm 3 mps 757 mmHg 68%
    20:00 +19°C° 0 mm 3 mps 757 mmHg 73%
    21:00 +19°C° 0 mm 3 mps 757 mmHg 71%
    22:00 +19°C° 0 mm 2 mps 757 mmHg 69%
    23:00 +18°C° 0 mm 2 mps 758 mmHg 67%

    23 May, Thursday

    Time Temperature Precipitation Wind Pressure Humidity
    00:00 +18°C° 0 mm 2 mps 757 mmHg 65%
    01:00 +17°C° 0 mm 2 mps 757 mmHg 63%
    02:00 +17°C° 0 mm 2 mps 757 mmHg 61%
    03:00 +17°C° 0 mm 2 mps 757 mmHg 62%
    04:00 +16°C° 0 mm 2 mps 757 mmHg 63%
    05:00 +16°C° 0 mm 2 mps 757 mmHg 64%
    06:00 +18°C° 0 mm 2 mps 757 mmHg 62%
    07:00 +21°C° 0 mm 1 mps 757 mmHg 59%
    08:00 +22°C° 0 mm 1 mps 757 mmHg 57%
    09:00 +24°C° 0 mm 1 mps 757 mmHg 54%
    10:00 +25°C° 0 mm 1 mps 757 mmHg 50%
    11:00 +25°C° 0 mm 0 mps 757 mmHg 47%
    12:00 +27°C° 0 mm 1 mps 756 mmHg 46%
    13:00 +28°C° 0 mm 2 mps 756 mmHg 45%
    14:00 +28°C° 0 mm 3 mps 756 mmHg 44%
    15:00 +27°C° 0 mm 3 mps 755 mmHg 50%
    16:00 +26°C° 0 mm 3 mps 755 mmHg 56%
    17:00 +25°C° 0 mm 4 mps 755 mmHg 62%
    18:00 +24°C° 0 mm 3 mps 755 mmHg 66%
    19:00 +21°C° 0 mm 2 mps 755 mmHg 70%
    20:00 +20°C° 0 mm 2 mps 755 mmHg 74%
    21:00 +19°C° 0 mm 2 mps 755 mmHg 75%
    22:00 +18°C° 0 mm 2 mps 755 mmHg 76%
    23:00 +17°C° 0 mm 2 mps 755 mmHg 77%

    24 May, Friday

    Time Temperature Precipitation Wind Pressure Humidity
    00:00 +18°C° 0 mm 1 mps 754 mmHg 78%
    01:00 +18°C° 0 mm 1 mps 754 mmHg 79%
    02:00 +18°C° 0 mm 1 mps 754 mmHg 80%
    03:00 +17°C° 0.1 mm 2 mps 754 mmHg 82%
    04:00 +17°C° 0.1 mm 2 mps 753 mmHg 85%
    05:00 +17°C° 0.1 mm 3 mps 753 mmHg 88%
    06:00 +17°C° 0.1 mm 3 mps 753 mmHg 88%
    07:00 +17°C° 0.1 mm 3 mps 753 mmHg 88%
    08:00 +17°C° 0.1 mm 4 mps 753 mmHg 89%
    09:00 +18°C° 0 mm 4 mps 753 mmHg 84%
    10:00 +17°C° 0 mm 5 mps 753 mmHg 79%
    11:00 +19°C° 0 mm 5 mps 753 mmHg 74%
    12:00 +20°C° 0 mm 5 mps 753 mmHg 71%
    13:00 +21°C° 0 mm 4 mps 753 mmHg 68%
    14:00 +22°C° 0 mm 4 mps 752 mmHg 65%
    15:00 +22°C° 0 mm 3 mps 752 mmHg 67%
    16:00 +22°C° 0 mm 3 mps 752 mmHg 69%
    17:00 +21°C° 0 mm 3 mps 751 mmHg 71%
    18:00 +20°C° 0 mm 2 mps 751 mmHg 78%
    19:00 +18°C° 0 mm 2 mps 751 mmHg 84%
    20:00 +16°C° 0 mm 1 mps 751 mmHg 91%
    21:00 +16°C° 0 mm 1 mps 751 mmHg 91%
    22:00 +16°C° 0 mm 1 mps 751 mmHg 91%
    23:00 +16°C° 0 mm 1 mps 751 mmHg 91%

    25 May, Saturday

    Time Temperature Precipitation Wind Pressure Humidity
    00:00 +16°C° 0 mm 1 mps 751 mmHg 91%
    01:00 +16°C° 0 mm 2 mps 751 mmHg 90%
    02:00 +16°C° 0 mm 2 mps 750 mmHg 89%
    03:00 +16°C° 0.1 mm 3 mps 750 mmHg 90%
    04:00 +16°C° 0.1 mm 3 mps 751 mmHg 91%
    05:00 +16°C° 0.1 mm 3 mps 751 mmHg 92%
    06:00 +17°C° 0 mm 3 mps 751 mmHg 87%
    07:00 +18°C° 0 mm 3 mps 751 mmHg 81%
    08:00 +19°C° 0 mm 4 mps 751 mmHg 76%
    09:00 +21°C° 0 mm 3 mps 751 mmHg 69%
    10:00 +23°C° 0 mm 2 mps 752 mmHg 63%
    11:00 +24°C° 0 mm 2 mps 752 mmHg 57%
    12:00 +25°C° 0.2 mm 2 mps 752 mmHg 58%
    13:00 +25°C° 0.2 mm 2 mps 751 mmHg 59%
    14:00 +25°C° 0.2 mm 2 mps 751 mmHg 61%
    15:00 +25°C° 0.2 mm 2 mps 751 mmHg 62%
    16:00 +25°C° 0.2 mm 2 mps 751 mmHg 64%
    17:00 +25°C° 0.2 mm 3 mps 751 mmHg 65%
    18:00 +22°C° 0 mm 3 mps 751 mmHg 72%
    19:00 +21°C° 0 mm 3 mps 751 mmHg 78%
    20:00 +19°C° 0 mm 3 mps 751 mmHg 85%
    21:00 +18°C° 0 mm 3 mps 751 mmHg 86%
    22:00 +17°C° 0 mm 3 mps 752 mmHg 86%
    23:00 +17°C° 0 mm 3 mps 752 mmHg 87%
    Show more